Vertical_Velocity
2 1 -4 -1 -1 -4 -2 -0 -0 -0 -2 0 -2 -1 1 -2 -0 -1 -2 1 -1 -1 -0 -1 -1 -1 -2 2 10 1 -1 -1 -1 1 -2 -2 0 -0 -0 4 -9 12 -3 -0 -4 1 -4
1 1 -2 1 -1 -5 -0 -3 -2 -2 -1 -2 -4 -3 -1 -2 -0 -3 -0 0 1 -1 1 -0 -1 0 -0 0 -8 -0 -0 -1 -1 -0 4 -1 7 3 4 5 2 7 -7 -1 -3 -2 0
-6 -2 -2 -5 -1 -1 -2 -3 -2 0 -1 -1 -1 2 3 -2 -1 -5 -1 2 -1 2 -1 0 -1 -0 1 -3 -2 -2 -1 -0 -2 -4 9 -2 -3 -4 1 1 -6 -7 -2 -0 5 0 -2
-1 -3 0 -5 -2 -1 -1 -3 -1 -1 -2 -3 -5 -2 -2 -2 -1 -1 -1 0 -0 2 -2 -0 -0 -2 2 -0 -1 3 -1 -3 3 -1 -11 6 -1 3 -4 -1 -4 -0 14 12 -2 -7 -5
-0 -1 -0 -1 -4 -1 -1 -5 -0 -5 -1 -4 -4 -1 -1 -1 -0 -2 1 -1 -0 3 -2 -0 -2 2 12 -1 2 2 5 1 -4 2 -5 1 2 5 -5 -1 2 -7 8 11 -2 -5 1
-1 -0 -2 -5 -2 -3 -1 -3 0 -2 -7 -3 1 -1 -1 -2 0 -1 -1 -0 0 2 -3 2 -1 -4 -1 3 4 0 1 1 3 0 -2 -7 4 -1 -3 0 -3 25 -5 -6 27 -1 -5
-2 -1 -4 -4 -3 -2 -1 -1 -3 -3 -1 1 -2 2 2 -4 -0 -1 2 -2 -1 -2 2 1 1 -6 1 1 -0 1 2 2 4 1 2 -11 7 -7 26 12 10 -4 4 10 -9 -3 1
-1 -2 -2 -2 -1 -2 -2 0 -2 1 -6 -5 2 -5 -1 -5 0 6 -3 -1 0 3 -1 -1 -2 1 -1 -0 1 -0 -5 2 0 -4 0 2 -5 11 -7 -2 -4 -3 2 6 -7 -1 -4
0 -3 -2 -1 -4 -3 -1 -1 -2 2 -3 -3 -0 1 3 1 3 -1 -3 3 4 1 -3 -2 0 2 2 -1 4 15 2 -1 7 -1 -3 10 29 -7 -7 -1 0 -0 4 11 18 -5 -4
1 -2 -1 -1 -2 -1 1 -3 0 -1 -3 -2 2 -1 -3 -4 0 1 2 5 0 2 -7 3 -1 3 -3 -3 -0 -3 -1 -2 -5 9 -3 21 -11 -2 -2 3 -7 19 -12 -1 -3 -0 14
-0 -0 0 -2 0 -3 -1 -1 -0 -3 -3 -2 0 2 -6 2 -0 2 -0 2 -2 -6 4 -2 1 -6 -3 2 -6 -3 -2 -2 12 -8 -8 19 -2 0 -0 8 -2 17 -3 -2 -1 -1 -3
-1 1 -1 -1 -2 0 -1 0 -2 -3 0 -2 4 -4 -3 -0 -3 4 4 -3 1 -1 -7 2 4 1 0 -3 -1 -2 2 -4 -8 -5 -2 21 -4 -5 16 -4 -1 -4 -2 -2 -2 8 7
0 0 -2 -0 -1 -1 -1 -3 1 -3 -1 -2 0 -1 -0 0 3 5 2 1 3 -2 -11 2 3 -5 4 3 -1 -5 3 -1 9 3 -2 -4 4 -1 -2 -2 -2 0 0 5 6 9 -7
1 1 -0 -0 -1 0 -1 -3 -3 -0 0 0 0 -4 2 -0 3 7 0 0 -4 1 12 -12 -3 0 9 -3 -0 -2 1 4 -9 -6 -4 3 10 -3 -2 2 5 -11 1 4 -3 3 -2
0 1 -1 0 -1 -2 -1 0 -3 -1 0 -0 -2 -2 3 1 0 5 -4 6 -1 10 4 5 -1 1 2 -1 -1 -1 -2 15 -2 -2 5 7 15 -3 -1 3 -6 5 3 5 2 -6 5
-1 -2 1 -0 -0 -2 0 -0 -2 1 -0 -2 2 -1 -0 2 -0 5 -1 -3 5 -3 -3 -5 8 -9 3 7 1 -9 -4 -7 1 1 1 2 4 -5 -5 -0 -5 -8 18 4 -1 -1 -1
-1 1 -1 -2 0 1 -2 0 0 0 0 -1 2 -1 2 4 1 6 -7 -1 3 -3 -2 -2 6 -0 5 5 -4 2 6 -5 1 -4 -1 -1 5 12 0 -4 7 -4 -1 -3 3 -1 1
0 1 -0 -3 -0 -0 -1 -0 -0 2 -0 1 3 -0 1 3 -0 5 -5 1 -0 -2 -5 -1 -2 -1 2 -5 2 3 13 -4 -0 -1 8 3 0 -1 24 3 -11 -7 12 12 -1 -2 -1
-1 -2 -1 -1 0 -0 -1 -0 -1 1 -1 2 2 4 1 -3 -2 1 5 0 3 -3 -2 1 2 -1 -1 2 3 -4 1 -1 -2 0 4 7 5 1 2 3 -5 -3 3 10 -5 -2 -3
-0 -2 -0 -2 -2 -1 -1 1 1 2 0 0 3 2 2 0 -5 4 2 1 -1 -1 -2 1 -1 -0 -1 -1 -1 1 0 -1 0 -2 1 -1 2 3 9 8 8 14 -7 -2 2 7 -4
-3 -2 -0 -2 -1 -1 -0 1 2 1 4 1 2 4 1 0 -5 -2 6 4 4 -1 -1 0 -2 -2 1 1 -2 0 -1 -3 -5 -3 -5 -2 15 -5 -9 2 6 5 -3 -0 2 2 6
-2 -2 -2 -2 -3 -0 0 1 1 2 6 4 -5 3 4 -4 2 -1 2 -1 6 -6 0 -1 4 -2 0 -1 -3 1 -3 -3 -5 5 3 -2 8 -0 -2 1 -10 -4 2 -1 -5 -1 -2
-2 -3 -2 -1 -2 -1 -1 1 2 1 4 2 -6 3 3 3 1 1 -1 4 5 -1 -0 -0 -2 -1 -1 -3 -2 -4 -4 -6 -8 3 3 6 2 1 5 3 6 -6 -1 2 11 6 11
-2 -2 -2 -2 -2 -2 -1 0 -1 2 0 4 -1 3 -1 8 2 4 5 -1 3 1 -0 -2 -2 0 -2 -3 -3 -6 -4 -3 -3 -4 -1 -6 -5 -5 -1 6 2 -4 -3 3 -4 1 0
-2 -0 -1 -2 -3 -3 -1 1 -1 -1 -0 1 2 -1 -2 11 8 -1 1 -1 1 2 -1 1 -1 0 -2 -5 -4 -2 0 -2 -2 -4 -4 -7 -2 -4 0 -1 -0 3 -6 8 11 3 4
-2 -0 -1 -2 -3 -3 -1 -0 -0 -0 4 3 3 2 2 -3 7 7 2 2 1 -3 0 -1 -1 -0 -1 3 -5 3 2 -4 -1 -0 -6 -0 -4 -3 -1 1 1 -1 -2 -5 -5 15 -6
-1 -0 -3 -3 -4 -2 -1 -1 4 -1 5 1 -0 1 6 0 -2 2 13 1 4 1 0 1 -2 2 -2 -0 4 2 -0 -6 5 1 1 -4 -1 -0 -2 -2 -2 -6 -5 -4 8 14 -6
-1 -0 -2 -1 -3 -2 -2 0 -1 5 6 0 -4 2 2 -3 1 -1 2 3 0 -0 2 -2 -2 -0 -0 3 1 -3 2 -2 -5 -2 -2 0 4 -4 1 -4 -2 -4 -3 3 1 -6 -0
-0 -1 -1 -2 -2 -2 -2 -1 0 6 7 1 5 2 3 2 -16 -0 6 8 -8 -7 -3 1 -3 -3 2 5 -1 -2 -1 -3 -4 3 -3 1 -7 0 -3 1 -1 1 -4 -4 0 -1 8
Height
3146 3148 3149 3151 3151 3152 3152 3152 3151 3151 3152 3152 3152 3152 3152 3151 3152 3151 3150 3150 3148 3147 3146 3145 3144 3144 3144 3145 3146 3142 3142 3142 3143 3144 3146 3148 3150 3152 3153 3154 3154 3154 3152 3150 3150 3152 3151
3142 3144 3146 3147 3148 3150 3149 3149 3148 3148 3148 3148 3149 3148 3148 3148 3148 3148 3147 3146 3146 3145 3142 3141 3141 3141 3142 3144 3140 3140 3141 3141 3142 3143 3146 3146 3150 3151 3152 3152 3153 3151 3150 3149 3150 3150 3150
3138 3140 3141 3143 3144 3145 3146 3145 3145 3144 3145 3145 3144 3144 3143 3144 3144 3145 3145 3144 3143 3142 3140 3138 3138 3138 3139 3140 3138 3138 3139 3140 3141 3142 3145 3145 3146 3148 3150 3150 3148 3149 3151 3151 3151 3150 3149
3131 3133 3136 3138 3140 3140 3141 3141 3140 3140 3141 3141 3140 3139 3140 3141 3140 3140 3141 3141 3140 3140 3138 3136 3135 3135 3135 3135 3136 3137 3138 3140 3140 3140 3141 3141 3142 3147 3148 3147 3147 3149 3151 3149 3148 3149 3149
3124 3127 3129 3131 3134 3135 3136 3137 3137 3138 3138 3139 3138 3137 3137 3137 3137 3137 3138 3138 3138 3137 3135 3134 3134 3134 3136 3133 3135 3137 3138 3140 3139 3138 3138 3140 3141 3145 3145 3147 3148 3147 3144 3145 3148 3147 3149
3118 3120 3123 3125 3128 3129 3130 3133 3133 3133 3135 3136 3135 3134 3134 3134 3134 3134 3135 3135 3135 3135 3134 3132 3132 3136 3133 3134 3135 3135 3136 3136 3139 3138 3138 3141 3143 3143 3144 3145 3141 3139 3142 3144 3144 3148 3147
3110 3112 3115 3117 3121 3123 3125 3127 3129 3130 3131 3132 3133 3132 3130 3131 3131 3132 3133 3133 3135 3133 3131 3132 3132 3132 3131 3132 3132 3133 3134 3135 3137 3139 3140 3141 3143 3141 3141 3141 3140 3140 3140 3141 3144 3143 3147
3100 3104 3107 3110 3113 3117 3119 3121 3124 3126 3127 3129 3129 3129 3128 3129 3129 3130 3130 3131 3132 3132 3130 3128 3128 3129 3129 3130 3132 3132 3133 3135 3136 3138 3140 3142 3140 3138 3139 3140 3141 3141 3141 3142 3144 3142 3144
3092 3095 3099 3102 3105 3109 3112 3115 3118 3121 3123 3124 3126 3126 3126 3126 3126 3127 3129 3129 3128 3128 3128 3128 3128 3129 3129 3130 3133 3134 3132 3134 3137 3137 3138 3138 3137 3136 3139 3140 3140 3140 3140 3140 3142 3140 3142
3086 3089 3091 3095 3099 3102 3106 3109 3112 3116 3118 3120 3122 3123 3124 3124 3127 3126 3126 3127 3127 3127 3129 3129 3126 3128 3127 3129 3131 3129 3130 3134 3135 3136 3137 3137 3134 3136 3137 3139 3138 3138 3137 3139 3139 3140 3138
3081 3083 3085 3088 3092 3096 3100 3104 3107 3110 3113 3117 3119 3120 3121 3123 3123 3124 3126 3125 3126 3129 3131 3128 3126 3124 3126 3130 3130 3128 3128 3131 3134 3135 3136 3135 3133 3135 3136 3137 3135 3137 3135 3137 3138 3139 3139
3076 3078 3080 3083 3086 3090 3094 3098 3101 3105 3109 3113 3115 3117 3119 3120 3121 3122 3123 3124 3128 3132 3127 3125 3125 3124 3126 3127 3128 3128 3129 3130 3132 3133 3134 3133 3132 3133 3134 3132 3133 3134 3135 3136 3137 3137 3136
3073 3074 3075 3078 3081 3084 3088 3092 3096 3100 3104 3108 3112 3114 3115 3116 3119 3119 3122 3125 3131 3127 3126 3125 3124 3124 3127 3127 3127 3128 3129 3129 3131 3132 3131 3131 3130 3128 3129 3132 3132 3133 3134 3133 3135 3133 3133
3070 3071 3071 3073 3075 3078 3081 3086 3091 3096 3100 3103 3107 3110 3112 3114 3116 3118 3121 3126 3127 3124 3123 3122 3124 3125 3126 3127 3127 3126 3128 3128 3127 3128 3127 3126 3127 3126 3127 3131 3131 3131 3132 3129 3130 3121 3125
3067 3067 3068 3069 3070 3073 3077 3080 3085 3091 3096 3099 3104 3107 3109 3111 3114 3117 3121 3123 3122 3124 3123 3123 3123 3125 3125 3126 3127 3126 3126 3127 3125 3125 3128 3125 3125 3123 3124 3126 3129 3128 3129 3130 3128 3127 3125
3064 3065 3065 3065 3067 3069 3072 3075 3080 3086 3092 3096 3100 3103 3106 3109 3111 3115 3119 3120 3122 3120 3120 3122 3124 3124 3124 3126 3126 3125 3125 3124 3123 3122 3123 3125 3125 3122 3121 3122 3123 3125 3127 3128 3128 3128 3127
3061 3062 3062 3063 3063 3065 3068 3071 3076 3081 3088 3093 3098 3101 3104 3106 3109 3113 3115 3119 3119 3118 3120 3123 3124 3125 3125 3124 3124 3125 3125 3122 3120 3120 3121 3123 3124 3122 3120 3119 3120 3123 3124 3125 3125 3125 3122
3058 3058 3059 3060 3061 3062 3065 3068 3072 3077 3083 3090 3095 3100 3101 3104 3109 3110 3113 3116 3115 3117 3119 3122 3122 3124 3124 3123 3124 3124 3123 3120 3119 3120 3123 3121 3120 3118 3116 3114 3117 3119 3120 3121 3122 3124 3123
3055 3056 3057 3058 3058 3059 3062 3065 3069 3073 3080 3086 3092 3097 3098 3102 3107 3109 3112 3112 3113 3117 3119 3121 3121 3121 3122 3123 3124 3120 3118 3117 3117 3118 3119 3118 3117 3115 3113 3116 3114 3116 3118 3120 3119 3121 3121
3052 3054 3054 3055 3055 3057 3059 3063 3067 3070 3077 3084 3090 3095 3096 3098 3101 3105 3109 3111 3112 3115 3117 3118 3119 3120 3120 3120 3119 3119 3118 3115 3115 3114 3114 3114 3116 3116 3115 3116 3115 3114 3116 3118 3119 3119 3119
3049 3051 3052 3053 3053 3055 3057 3060 3065 3069 3075 3082 3086 3091 3092 3096 3099 3103 3107 3110 3112 3114 3115 3116 3118 3118 3120 3119 3119 3118 3117 3115 3113 3112 3113 3115 3114 3115 3116 3116 3115 3115 3116 3117 3118 3118 3119
3046 3048 3050 3051 3052 3052 3055 3059 3063 3067 3073 3079 3082 3087 3089 3093 3097 3101 3104 3107 3110 3111 3114 3116 3117 3116 3117 3118 3119 3117 3116 3116 3116 3115 3114 3113 3113 3114 3116 3115 3115 3117 3118 3118 3118 3118 3120
3043 3045 3047 3048 3049 3050 3052 3056 3059 3065 3071 3076 3081 3085 3088 3093 3094 3100 3103 3106 3109 3109 3111 3113 3114 3114 3114 3114 3114 3113 3113 3112 3113 3115 3115 3114 3114 3115 3115 3116 3117 3119 3118 3120 3120 3120 3121
3039 3042 3044 3045 3046 3047 3049 3053 3057 3062 3067 3073 3076 3082 3086 3093 3094 3099 3101 3103 3105 3107 3109 3110 3111 3112 3113 3113 3114 3115 3115 3115 3115 3115 3116 3116 3115 3115 3117 3118 3119 3123 3122 3123 3124 3124 3123
3035 3038 3040 3042 3043 3044 3046 3050 3054 3059 3065 3070 3075 3080 3083 3090 3094 3095 3098 3100 3103 3105 3107 3108 3110 3111 3112 3114 3118 3120 3120 3120 3119 3117 3118 3118 3118 3119 3119 3119 3125 3125 3126 3125 3126 3127 3124
3031 3034 3036 3038 3039 3041 3043 3046 3051 3056 3062 3067 3073 3078 3082 3085 3091 3094 3096 3100 3102 3103 3105 3106 3109 3110 3112 3117 3118 3120 3119 3120 3121 3121 3120 3120 3119 3120 3120 3119 3123 3125 3126 3125 3126 3127 3124
3026 3030 3033 3035 3037 3038 3040 3044 3048 3054 3059 3064 3070 3075 3080 3082 3085 3090 3096 3098 3102 3103 3104 3105 3107 3110 3112 3116 3119 3119 3119 3119 3121 3121 3121 3121 3122 3122 3121 3122 3124 3125 3125 3125 3126 3131 3124
3022 3026 3029 3032 3034 3036 3037 3040 3045 3051 3056 3061 3066 3072 3077 3079 3083 3087 3091 3095 3098 3102 3103 3105 3108 3109 3111 3115 3117 3117 3118 3118 3118 3119 3120 3122 3122 3122 3123 3123 3126 3124 3126 3127 3128 3124 3125
3018 3022 3026 3028 3031 3032 3034 3038 3043 3048 3053 3059 3066 3070 3074 3078 3080 3087 3091 3094 3095 3098 3102 3103 3105 3107 3110 3113 3114 3114 3115 3116 3119 3120 3119 3122 3121 3122 3123 3122 3122 3124 3125 3126 3125 3125 3124